Ely, MN

7:04 AM CDT on June 23, 2017 (GMT -0500)
Ely Municipal

Weather History for KELO - November, 2012

Change the Weather History Date:

Tuesday, November 27, 2012

  Actual Average Record
Temperature  
Mean Temperature 15 °F -  
Max Temperature 24 °F 29 °F 57 °F (1998)
Min Temperature 6 °F 15 °F -20 °F (2014)
Degree Days  
Heating Degree Days 50    
Moisture  
Dew Point 13 °F    
Average Humidity 84    
Maximum Humidity 93    
Minimum Humidity 73    
Precipitation  
Precipitation 0.00 in - - ()
Sea Level Pressure  
Sea Level Pressure 30.04 in    
Wind  
Wind Speed 8 mph (WSW)    
Max Wind Speed 14 mph    
Max Gust Speed 21 mph    
Visibility 7 miles    
Events Snow    
Averages and records for this station are not official NWS values.
T = Trace of Precipitation, MM = Missing Value Source: NWS Daily Summary

Daily Weather History Graph

Daily Weather History Graph

Search for Another Location

Airport or City:

Trip Planner

Search our weather history database for the weather conditions in past years. The results will help you decide how hot, cold, wet, or windy it might be!

Date:

Astronomy

Nov. 27, 2012 Rise Set
Actual Time 7:30 AM CST 4:19 PM CST
Civil Twilight 6:55 AM CST 4:54 PM CST
Nautical Twilight 6:17 AM CST 5:32 PM CST
Astronomical Twilight 5:40 AM CST 6:09 PM CST
Moon 3:51 PM CST (11/27) 6:34 AM CST (11/27)
Length of Visible Light 9h 58m
Length of Day
8h 48m
Waxing Gibbous, 99% of the Moon is Illuminated
Nov 27
Waxing Gibbous
Nov 28
Full
Dec 6
Last Quarter
Dec 13
New
Dec 19
First Quarter

Hourly Weather History & Observations

Time (CST) Temp. Windchill Dew Point Humidity Pressure Visibility Wind Dir Wind Speed Gust Speed Precip Events Conditions
12:13 AM 12.2 °F 1.7 °F 8.6 °F 85% 30.13 in 10.0 mi SSW 6.9 mph - N/A   Overcast
12:33 AM 12.2 °F 0.7 °F 8.6 °F 85% 30.12 in 10.0 mi SW 8.1 mph - N/A   Overcast
12:52 AM 12.2 °F 1.7 °F 8.6 °F 85% 30.11 in 10.0 mi SSW 6.9 mph - N/A   Overcast
1:13 AM 12.2 °F 2.9 °F 8.6 °F 85% 30.10 in 10.0 mi SSW 5.8 mph - N/A   Overcast
1:32 AM 14.0 °F 2.9 °F 8.6 °F 79% 30.09 in 10.0 mi SW 8.1 mph - N/A   Overcast
1:53 AM 14.0 °F 5.1 °F 10.4 °F 86% 30.09 in 10.0 mi SW 5.8 mph - N/A   Overcast
2:13 AM 14.0 °F 3.9 °F 10.4 °F 86% 30.09 in 10.0 mi SW 6.9 mph - N/A   Overcast
2:32 AM 14.0 °F 2.0 °F 10.4 °F 86% 30.09 in 10.0 mi SW 9.2 mph - N/A   Overcast
2:53 AM 15.8 °F 5.1 °F 10.4 °F 79% 30.08 in 10.0 mi SW 8.1 mph - N/A   Overcast
3:13 AM 15.8 °F 6.1 °F 10.4 °F 79% 30.08 in 10.0 mi SW 6.9 mph - N/A   Overcast
3:32 AM 15.8 °F 5.1 °F 10.4 °F 79% 30.06 in 10.0 mi SW 8.1 mph - N/A   Overcast
3:53 AM 15.8 °F 6.1 °F 12.2 °F 86% 30.06 in 10.0 mi SW 6.9 mph - N/A   Overcast
4:13 AM 15.8 °F 7.2 °F 12.2 °F 86% 30.05 in 10.0 mi SW 5.8 mph - N/A   Overcast
4:32 AM 15.8 °F 7.2 °F 12.2 °F 86% 30.04 in 10.0 mi SSW 5.8 mph - N/A   Overcast
4:53 AM 15.8 °F 6.1 °F 12.2 °F 86% 30.04 in 10.0 mi SW 6.9 mph - N/A   Overcast
5:13 AM 17.6 °F 8.2 °F 12.2 °F 79% 30.04 in 7.0 mi SW 6.9 mph - N/A   Mostly Cloudy
5:32 AM 17.6 °F 8.2 °F 14.0 °F 86% 30.03 in 7.0 mi SSW 6.9 mph - N/A Snow Light Snow
5:53 AM 17.6 °F 7.3 °F 14.0 °F 86% 30.03 in 4.0 mi SSW 8.1 mph - N/A Snow Light Snow
6:13 AM 17.6 °F 9.3 °F 14.0 °F 86% 30.02 in 2.0 mi SW 5.8 mph - N/A Snow Light Snow
6:33 AM 17.6 °F 9.3 °F 15.8 °F 93% 30.02 in 2.5 mi SW 5.8 mph - N/A Snow Light Snow
6:53 AM 17.6 °F 8.2 °F 15.8 °F 93% 30.02 in 2.5 mi SW 6.9 mph - N/A Snow Light Snow
7:12 AM 17.6 °F 9.3 °F 15.8 °F 93% 30.02 in 2.0 mi SW 5.8 mph - N/A Snow Light Snow
7:33 AM 17.6 °F 7.3 °F 15.8 °F 93% 30.02 in 2.5 mi SW 8.1 mph - N/A Snow Light Snow
7:53 AM 17.6 °F 7.3 °F 15.8 °F 93% 30.02 in 2.0 mi SW 8.1 mph - N/A Snow Light Snow
8:12 AM 17.6 °F 7.3 °F 15.8 °F 93% 30.02 in 2.5 mi SW 8.1 mph - N/A Snow Light Snow
8:33 AM 17.6 °F 7.3 °F 15.8 °F 93% 30.01 in 1.5 mi SW 8.1 mph - N/A Snow Light Snow
8:52 AM 17.6 °F 8.2 °F 15.8 °F 93% 30.01 in 1.2 mi SW 6.9 mph - N/A Snow Light Snow
9:13 AM 17.6 °F 8.2 °F 15.8 °F 93% 30.01 in 1.2 mi SW 6.9 mph - N/A Snow Light Snow
9:33 AM 19.4 °F 8.6 °F 15.8 °F 86% 30.01 in 2.0 mi SW 9.2 mph - N/A Snow Light Snow
9:52 AM 19.4 °F 8.6 °F 15.8 °F 86% 30.01 in 2.0 mi SW 9.2 mph - N/A Snow Light Snow
10:13 AM 19.4 °F 8.6 °F 15.8 °F 86% 30.01 in 4.0 mi SW 9.2 mph - N/A Snow Light Snow
10:33 AM 19.4 °F 11.5 °F 15.8 °F 86% 30.01 in 2.0 mi SW 5.8 mph - N/A Snow Light Snow
10:52 AM 21.2 °F 13.6 °F 17.6 °F 86% 30.01 in 5.0 mi WSW 5.8 mph - N/A Snow Light Snow
11:13 AM 21.2 °F 12.6 °F 17.6 °F 86% 30.00 in 10.0 mi WSW 6.9 mph - N/A   Scattered Clouds
11:33 AM 21.2 °F 10.9 °F 17.6 °F 86% 30.00 in 5.0 mi WSW 9.2 mph - N/A Snow Light Snow
11:52 AM 21.2 °F 14.9 °F 19.4 °F 93% 30.00 in 2.5 mi WSW 4.6 mph - N/A Snow Light Snow
12:13 PM 23.0 °F 15.8 °F 19.4 °F 86% 29.99 in 2.5 mi West 5.8 mph - N/A Snow Light Snow
12:33 PM 23.0 °F 13.1 °F 19.4 °F 86% 29.99 in 4.0 mi West 9.2 mph - N/A Snow Light Snow
12:52 PM 24.8 °F 15.3 °F 19.4 °F 80% 29.99 in 3.0 mi West 9.2 mph - N/A Snow Light Snow
1:13 PM 24.8 °F 16.1 °F 19.4 °F 80% 29.98 in 4.0 mi West 8.1 mph - N/A Snow Light Snow
1:33 PM 24.8 °F 16.9 °F 19.4 °F 80% 29.98 in 3.0 mi West 6.9 mph - N/A Snow Light Snow
1:52 PM 24.8 °F 19.1 °F 19.4 °F 80% 29.98 in 2.5 mi West 4.6 mph - N/A Snow Light Snow
2:13 PM 24.8 °F 14.6 °F 19.4 °F 80% 29.98 in 3.0 mi West 10.4 mph - N/A Snow Light Snow
2:33 PM 24.8 °F 19.1 °F 19.4 °F 80% 29.97 in 5.0 mi West 4.6 mph - N/A Snow Light Snow
2:52 PM 24.8 °F 15.3 °F 19.4 °F 80% 29.98 in 10.0 mi West 9.2 mph - N/A   Overcast
3:13 PM 24.8 °F 13.4 °F 19.4 °F 80% 29.98 in 10.0 mi West 12.7 mph - N/A   Overcast
3:33 PM 23.0 °F 13.9 °F 17.6 °F 80% 29.99 in 10.0 mi West 8.1 mph - N/A   Overcast
3:52 PM 21.2 °F 10.9 °F 17.6 °F 86% 29.99 in 10.0 mi WNW 9.2 mph 16.1 mph N/A   Mostly Cloudy
4:13 PM 21.2 °F 10.1 °F 15.8 °F 80% 30.01 in 10.0 mi West 10.4 mph - N/A   Scattered Clouds
4:32 PM 21.2 °F 10.1 °F 15.8 °F 80% 30.02 in 10.0 mi West 10.4 mph 16.1 mph N/A   Mostly Cloudy
4:53 PM 19.4 °F 8.6 °F 15.8 °F 86% 30.02 in 10.0 mi West 9.2 mph - N/A   Overcast
5:13 PM 19.4 °F 12.8 °F 15.8 °F 86% 30.03 in 10.0 mi WNW 4.6 mph - N/A   Overcast
5:32 PM 19.4 °F 9.5 °F 14.0 °F 80% 30.03 in 10.0 mi West 8.1 mph - N/A   Overcast
5:53 PM 17.6 °F 6.4 °F 12.2 °F 79% 30.04 in 10.0 mi West 9.2 mph - N/A   Overcast
6:13 PM 17.6 °F 6.4 °F 12.2 °F 79% 30.04 in 10.0 mi West 9.2 mph - N/A   Overcast
6:33 PM 17.6 °F 5.7 °F 12.2 °F 79% 30.05 in 10.0 mi West 10.4 mph 17.3 mph N/A   Overcast
6:50 PM 17.6 °F 7.3 °F 10.4 °F 73% 30.05 in 10.0 mi West 8.1 mph - N/A   Overcast
7:13 PM 15.8 °F 4.2 °F 10.4 °F 79% 30.06 in 10.0 mi West 9.2 mph - N/A   Overcast
7:33 PM 15.8 °F 1.4 °F 10.4 °F 79% 30.07 in 10.0 mi WNW 13.8 mph 20.7 mph N/A   Mostly Cloudy
7:53 PM 14.0 °F 5.1 °F 8.6 °F 79% 30.07 in 10.0 mi WNW 5.8 mph - N/A   Scattered Clouds
8:12 PM 12.2 °F 0.7 °F 8.6 °F 85% 30.08 in 10.0 mi WNW 8.1 mph - N/A   Scattered Clouds
8:33 PM 12.2 °F 2.9 °F 6.8 °F 79% 30.08 in 10.0 mi WNW 5.8 mph - N/A   Clear
8:53 PM 10.4 °F 0.8 °F 6.8 °F 85% 30.09 in 10.0 mi West 5.8 mph - N/A   Clear
9:13 PM 10.4 °F -2.4 °F 6.8 °F 85% 30.10 in 10.0 mi WNW 9.2 mph - N/A   Clear
9:33 PM 8.6 °F -3.7 °F 5.0 °F 85% 30.11 in 10.0 mi WNW 8.1 mph - N/A   Clear
9:52 PM 8.6 °F -2.6 °F 5.0 °F 85% 30.11 in 10.0 mi WNW 6.9 mph - N/A   Clear
10:13 PM 8.6 °F -1.3 °F 3.2 °F 79% 30.11 in 10.0 mi NW 5.8 mph - N/A   Clear
10:33 PM 6.8 °F -4.8 °F 3.2 °F 85% 30.12 in 10.0 mi WNW 6.9 mph - N/A   Scattered Clouds
10:52 PM 6.8 °F -5.9 °F 3.2 °F 85% 30.13 in 10.0 mi WNW 8.1 mph - N/A   Clear
11:13 PM 6.8 °F -5.9 °F 1.4 °F 79% 30.13 in 10.0 mi WNW 8.1 mph - N/A   Scattered Clouds
11:33 PM 6.8 °F -7.8 °F 3.2 °F 85% 30.14 in 10.0 mi WNW 10.4 mph 19.6 mph N/A   Overcast
11:52 PM 6.8 °F -10.0 °F 3.2 °F 85% 30.14 in 10.0 mi WNW 13.8 mph 20.7 mph N/A   Overcast